• In Russia
  • List of Countries
  • For 7 days
  • Water Temperature
  • Weather Map
  • Weather Widgets
  • user-avatar
    Login

    Hourly Weather Florencia

    Today, 22 September, Sunday

    Time Temperature Precipitation Wind Pressure Humidity
    00:00 +23°C° 0 mm 1 mps 734 mmHg 88%
    01:00 +24°C° 0 mm 1 mps 734 mmHg 86%
    02:00 +23°C° 0 mm 1 mps 734 mmHg 86%
    03:00 +23°C° 0 mm 1 mps 733 mmHg 85%
    04:00 +23°C° 0 mm 1 mps 733 mmHg 85%
    05:00 +22°C° 0 mm 0 mps 734 mmHg 84%
    06:00 +22°C° 0 mm 0 mps 734 mmHg 83%
    07:00 +23°C° 0 mm 0 mps 735 mmHg 83%
    08:00 +27°C° 0.1 mm 1 mps 735 mmHg 77%
    09:00 +29°C° 0.1 mm 1 mps 735 mmHg 72%
    10:00 +31°C° 0.1 mm 1 mps 736 mmHg 66%
    11:00 +31°C° 0.6 mm 1 mps 735 mmHg 66%
    12:00 +32°C° 0.6 mm 1 mps 734 mmHg 67%
    13:00 +32°C° 0.6 mm 1 mps 733 mmHg 67%
    14:00 +32°C° 1 mm 1 mps 733 mmHg 71%
    15:00 +31°C° 1 mm 1 mps 732 mmHg 75%
    16:00 +28°C° 1 mm 0 mps 731 mmHg 80%
    17:00 +28°C° 1.1 mm 1 mps 732 mmHg 85%
    18:00 +27°C° 1.1 mm 1 mps 732 mmHg 90%
    19:00 +25°C° 1.1 mm 1 mps 733 mmHg 94%
    20:00 +24°C° 0.7 mm 1 mps 733 mmHg 94%
    21:00 +24°C° 0.7 mm 1 mps 734 mmHg 94%
    22:00 +24°C° 0.7 mm 1 mps 734 mmHg 94%
    23:00 +24°C° 0.2 mm 1 mps 734 mmHg 94%

    Tomorrow, 23 September, Monday

    Time Temperature Precipitation Wind Pressure Humidity
    00:00 +24°C° 0.2 mm 1 mps 734 mmHg 93%
    01:00 +24°C° 0.2 mm 1 mps 734 mmHg 93%
    02:00 +24°C° 0.5 mm 1 mps 734 mmHg 94%
    03:00 +23°C° 0.5 mm 1 mps 734 mmHg 94%
    04:00 +23°C° 0.5 mm 1 mps 734 mmHg 95%
    05:00 +23°C° 0.1 mm 1 mps 734 mmHg 94%
    06:00 +24°C° 0.1 mm 1 mps 734 mmHg 93%
    07:00 +24°C° 0.1 mm 1 mps 735 mmHg 92%
    08:00 +27°C° 0 mm 1 mps 735 mmHg 80%
    09:00 +30°C° 0 mm 1 mps 735 mmHg 68%
    10:00 +33°C° 0 mm 1 mps 735 mmHg 56%
    11:00 +33°C° 0 mm 1 mps 734 mmHg 55%
    12:00 +34°C° 0 mm 1 mps 734 mmHg 53%
    13:00 +35°C° 0 mm 2 mps 733 mmHg 52%
    14:00 +34°C° 0.1 mm 1 mps 732 mmHg 54%
    15:00 +33°C° 0.1 mm 1 mps 731 mmHg 56%
    16:00 +33°C° 0.1 mm 1 mps 730 mmHg 58%
    17:00 +31°C° 0.1 mm 1 mps 731 mmHg 64%
    18:00 +29°C° 0.1 mm 1 mps 731 mmHg 70%
    19:00 +27°C° 0.1 mm 1 mps 732 mmHg 76%
    20:00 +26°C° 0.6 mm 1 mps 733 mmHg 82%
    21:00 +25°C° 0.6 mm 1 mps 734 mmHg 87%
    22:00 +24°C° 0.6 mm 1 mps 735 mmHg 93%
    23:00 +24°C° 0.9 mm 1 mps 734 mmHg 94%

    Day after tomorrow, 24 September, Tuesday

    Time Temperature Precipitation Wind Pressure Humidity
    00:00 +24°C° 0.9 mm 1 mps 734 mmHg 96%
    01:00 +21°C° 0.9 mm 0 mps 734 mmHg 98%
    02:00 +22°C° 0.8 mm 0 mps 734 mmHg 98%
    03:00 +24°C° 0.8 mm 1 mps 734 mmHg 98%
    04:00 +24°C° 0.8 mm 1 mps 734 mmHg 98%
    05:00 +24°C° 0.1 mm 1 mps 735 mmHg 98%
    06:00 +24°C° 0.1 mm 1 mps 735 mmHg 97%
    07:00 +24°C° 0.1 mm 1 mps 735 mmHg 96%
    08:00 +25°C° 0 mm 1 mps 736 mmHg 92%
    09:00 +24°C° 0 mm 0 mps 736 mmHg 87%
    10:00 +26°C° 0 mm 0 mps 736 mmHg 82%
    11:00 +29°C° 0 mm 1 mps 735 mmHg 73%
    12:00 +31°C° 0 mm 1 mps 734 mmHg 64%
    13:00 +32°C° 0 mm 2 mps 734 mmHg 55%
    14:00 +31°C° 0.2 mm 2 mps 733 mmHg 61%
    15:00 +31°C° 0.2 mm 1 mps 732 mmHg 67%
    16:00 +30°C° 0.2 mm 1 mps 732 mmHg 73%
    17:00 +28°C° 0.1 mm 1 mps 732 mmHg 78%
    18:00 +27°C° 0.1 mm 1 mps 732 mmHg 82%
    19:00 +25°C° 0.1 mm 1 mps 733 mmHg 87%
    20:00 +25°C° 0 mm 1 mps 733 mmHg 86%
    21:00 +25°C° 0 mm 1 mps 734 mmHg 85%
    22:00 +24°C° 0 mm 1 mps 734 mmHg 84%
    23:00 +24°C° 0 mm 1 mps 734 mmHg 83%

    25 September, Wednesday

    Time Temperature Precipitation Wind Pressure Humidity
    00:00 +24°C° 0 mm 1 mps 734 mmHg 82%
    01:00 +24°C° 0 mm 1 mps 734 mmHg 80%
    02:00 +24°C° 0 mm 1 mps 734 mmHg 80%
    03:00 +24°C° 0 mm 1 mps 733 mmHg 79%
    04:00 +24°C° 0 mm 1 mps 733 mmHg 79%
    05:00 +24°C° 0 mm 1 mps 734 mmHg 80%
    06:00 +23°C° 0 mm 0 mps 735 mmHg 80%
    07:00 +23°C° 0 mm 0 mps 735 mmHg 81%
    08:00 +23°C° 0.2 mm 0 mps 735 mmHg 83%
    09:00 +24°C° 0.2 mm 0 mps 735 mmHg 86%
    10:00 +24°C° 0.2 mm 0 mps 735 mmHg 89%
    11:00 +26°C° 0.2 mm 0 mps 735 mmHg 79%
    12:00 +30°C° 0.2 mm 1 mps 734 mmHg 69%
    13:00 +32°C° 0.2 mm 1 mps 733 mmHg 60%
    14:00 +32°C° 0.3 mm 1 mps 733 mmHg 62%
    15:00 +32°C° 0.3 mm 1 mps 732 mmHg 64%
    16:00 +31°C° 0.3 mm 1 mps 732 mmHg 66%
    17:00 +29°C° 0.2 mm 1 mps 732 mmHg 73%
    18:00 +27°C° 0.2 mm 1 mps 732 mmHg 80%
    19:00 +25°C° 0.2 mm 1 mps 732 mmHg 87%
    20:00 +25°C° 0 mm 1 mps 733 mmHg 87%
    21:00 +24°C° 0 mm 1 mps 734 mmHg 87%
    22:00 +24°C° 0 mm 1 mps 734 mmHg 87%
    23:00 +24°C° 0 mm 1 mps 734 mmHg 85%

    26 September, Thursday

    Time Temperature Precipitation Wind Pressure Humidity
    00:00 +24°C° 0 mm 1 mps 734 mmHg 84%
    01:00 +24°C° 0 mm 1 mps 733 mmHg 83%
    02:00 +24°C° 0 mm 1 mps 733 mmHg 83%
    03:00 +24°C° 0 mm 1 mps 733 mmHg 83%
    04:00 +24°C° 0 mm 1 mps 733 mmHg 83%
    05:00 +24°C° 0 mm 1 mps 733 mmHg 82%
    06:00 +25°C° 0 mm 1 mps 734 mmHg 82%
    07:00 +25°C° 0 mm 1 mps 735 mmHg 81%
    08:00 +27°C° 0.2 mm 1 mps 735 mmHg 77%
    09:00 +29°C° 0.2 mm 1 mps 735 mmHg 72%
    10:00 +31°C° 0.2 mm 1 mps 735 mmHg 68%
    11:00 +32°C° 0.6 mm 1 mps 734 mmHg 68%
    12:00 +32°C° 0.6 mm 1 mps 733 mmHg 68%
    13:00 +30°C° 0.6 mm 0 mps 732 mmHg 68%
    14:00 +30°C° 0.3 mm 0 mps 732 mmHg 67%
    15:00 +30°C° 0.3 mm 0 mps 731 mmHg 66%
    16:00 +30°C° 0.3 mm 0 mps 731 mmHg 65%
    17:00 +30°C° 0.1 mm 1 mps 731 mmHg 71%
    18:00 +28°C° 0.1 mm 1 mps 731 mmHg 77%
    19:00 +26°C° 0.1 mm 1 mps 731 mmHg 83%
    20:00 +25°C° 0 mm 1 mps 732 mmHg 82%
    21:00 +25°C° 0 mm 1 mps 733 mmHg 81%
    22:00 +25°C° 0 mm 1 mps 733 mmHg 80%
    23:00 +24°C° 0 mm 1 mps 733 mmHg 80%

    27 September, Friday

    Time Temperature Precipitation Wind Pressure Humidity
    00:00 +24°C° 0 mm 1 mps 733 mmHg 80%
    01:00 +24°C° 0 mm 1 mps 733 mmHg 80%
    02:00 +24°C° 0.1 mm 1 mps 733 mmHg 81%
    03:00 +24°C° 0.1 mm 1 mps 733 mmHg 82%
    04:00 +23°C° 0.1 mm 1 mps 733 mmHg 83%
    05:00 +22°C° 0.4 mm 0 mps 734 mmHg 86%
    06:00 +22°C° 0.4 mm 0 mps 734 mmHg 89%
    07:00 +22°C° 0.4 mm 0 mps 735 mmHg 92%
    08:00 +22°C° 1 mm 0 mps 735 mmHg 94%
    09:00 +22°C° 1 mm 0 mps 736 mmHg 95%
    10:00 +23°C° 1 mm 0 mps 736 mmHg 97%
    11:00 +23°C° 0.6 mm 0 mps 735 mmHg 97%
    12:00 +23°C° 0.6 mm 0 mps 734 mmHg 97%
    13:00 +23°C° 0.6 mm 0 mps 734 mmHg 96%
    14:00 +26°C° 0 mm 1 mps 733 mmHg 91%
    15:00 +27°C° 0 mm 1 mps 733 mmHg 85%
    16:00 +28°C° 0 mm 1 mps 732 mmHg 80%
    17:00 +27°C° 0 mm 1 mps 732 mmHg 85%
    18:00 +24°C° 0 mm 0 mps 733 mmHg 90%
    19:00 +22°C° 0 mm 0 mps 733 mmHg 95%
    20:00 +22°C° 0 mm 0 mps 733 mmHg 94%
    21:00 +22°C° 0 mm 0 mps 734 mmHg 92%
    22:00 +24°C° 0 mm 1 mps 734 mmHg 91%
    23:00 +24°C° 0 mm 1 mps 733 mmHg 89%
    Show more